GW1238 Weather Reports


time (UTC)temp
C
wind
direction
speed
KPH
gust
KPH
rain 1hr
cm
rain 24hr
cm
rain mn
cm
humidity
%
barometer
mb
20260509005549 17 274 3.2 4.8 0.00 0.00 0.00 70 1016.7
20260509005044 18 168 0.0 1.6 0.00 0.00 0.00 68 1016.6
20260509004541 18 192 1.6 3.2 0.00 0.00 0.00 67 1016.5
20260509004038 17 169 6.4 9.7 0.00 0.00 0.00 71 1016.6
20260509003537 17 287 3.2 3.2 0.00 0.00 0.00 68 1016.7
20260509003033 18 167 0.0 3.2 0.00 0.00 0.00 65 1016.4
20260509002531 18 306 1.6 4.8 0.00 0.00 0.00 63 1016.6
20260509002028 19 217 1.6 3.2 0.00 0.00 0.00 64 1016.6
20260509001525 20 209 3.2 3.2 0.00 0.00 0.00 60 1016.4
20260509001021 20 194 8.0 12.9 0.00 0.00 0.00 63 1016.7
20260509000520 20 202 9.7 11.3 0.00 0.00 0.00 61 1016.6
20260509000015 19 189 9.7 12.9 0.00 0.00 0.00 60 1016.5
20260508235514 20 258 1.6 3.2 0.00 0.00 0.00 64 1016.5
20260508235009 20 212 3.2 9.7 0.00 0.00 0.00 58 1016.4
20260508234507 20 203 1.6 9.7 0.00 0.00 0.00 60 1016.5
20260508234004 20 202 0.0 4.8 0.00 0.00 0.00 59 1016.4
20260508233503 21 181 6.4 11.3 0.00 0.00 0.00 60 1016.4
20260508233000 21 184 6.4 11.3 0.00 0.00 0.00 57 1016.4
20260508232457 21 180 1.6 4.8 0.00 0.00 0.00 56 1016.3
20260508231954 21 178 1.6 3.2 0.00 0.00 0.00 54 1016.5
20260508231451 21 186 1.6 9.7 0.00 0.00 0.00 54 1016.4
20260508230948 21 199 4.8 11.3 0.00 0.00 0.00 54 1016.6
20260508230445 21 198 6.4 6.4 0.00 0.00 0.00 52 1016.5
20260508225942 21 186 4.8 9.7 0.00 0.00 0.00 53 1016.6
20260508225439 21 185 4.8 4.8 0.00 0.00 0.00 52 1016.6
20260508224936 21 182 6.4 12.9 0.00 0.00 0.00 50 1016.6
20260508224433 22 169 9.7 12.9 0.00 0.00 0.00 53 1016.6
20260508223930 22 178 9.7 12.9 0.00 0.00 0.00 53 1016.7
20260508223429 21 174 8.0 11.3 0.00 0.00 0.00 54 1016.8
20260508222925 21 201 1.6 9.7 0.00 0.00 0.00 55 1016.7
20260508222422 22 173 8.0 11.3 0.00 0.00 0.00 53 1016.7
20260508221919 21 192 9.7 11.3 0.00 0.00 0.00 52 1016.9
20260508221415 21 182 4.8 6.4 0.00 0.00 0.00 49 1016.7
20260508220911 21 189 6.4 9.7 0.00 0.00 0.00 49 1016.7
20260508220408 22 180 0.0 1.6 0.00 0.00 0.00 51 1016.6
20260508215904 22 268 1.6 1.6 0.00 0.00 0.00 48 1016.7
20260508215401 22 188 0.0 3.2 0.00 0.00 0.00 52 1016.5
20260508214858 22 192 0.0 1.6 0.00 0.00 0.00 46 1016.6
20260508214356 22 188 3.2 3.2 0.00 0.00 0.00 45 1016.5
20260508213852 22 244 1.6 3.2 0.00 0.00 0.00 49 1016.5
20260508213349 22 183 0.0 3.2 0.00 0.00 0.00 47 1016.6
20260508212844 22 187 1.6 3.2 0.00 0.00 0.00 48 1016.5
20260508212341 22 283 1.6 4.8 0.00 0.00 0.00 49 1016.5
20260508211837 22 188 3.2 4.8 0.00 0.00 0.00 49 1016.7
20260508211333 21 196 4.8 9.7 0.00 0.00 0.00 44 1016.8
20260508210831 22 182 1.6 3.2 0.00 0.00 0.00 43 1016.8
20260508210327 22 168 1.6 6.4 0.00 0.00 0.00 44 1016.8
20260508205824 22 195 4.8 6.4 0.00 0.00 0.00 43 1017.0
20260508205320 23 195 6.4 6.4 0.00 0.00 0.00 40 1016.9
20260508204816 22 178 1.6 6.4 0.00 0.00 0.00 38 1017.3
20260508204313 22 170 3.2 4.8 0.00 0.00 0.00 39 1017.2
20260508203809 22 182 6.4 6.4 0.00 0.00 0.00 40 1017.2
20260508203305 23 197 3.2 4.8 0.00 0.00 0.00 38 1017.1
20260508202801 22 158 1.6 3.2 0.00 0.00 0.00 44 1017.1
20260508202259 22 193 1.6 3.2 0.00 0.00 0.00 38 1017.2
20260508201756 22 164 3.2 4.8 0.00 0.00 0.00 39 1017.2
20260508201252 22 181 0.0 3.2 0.00 0.00 0.00 39 1017.0
20260508200749 22 124 1.6 1.6 0.00 0.00 0.00 41 1017.5
20260508200245 23 134 0.0 0.0 0.00 0.00 0.00 38 1017.3
20260508195741 23 168 0.0 3.2 0.00 0.00 0.00 38 1017.3
20260508195238 23 170 1.6 3.2 0.00 0.00 0.00 37 1017.5
20260508194735 23 206 3.2 3.2 0.00 0.00 0.00 37 1017.4
20260508194232 23 204 0.0 3.2 0.00 0.00 0.00 35 1017.8
20260508193729 23 154 1.6 1.6 0.00 0.00 0.00 39 1017.9
20260508193225 23 166 1.6 3.2 0.00 0.00 0.00 37 1017.9
20260508192722 23 157 0.0 3.2 0.00 0.00 0.00 38 1017.7
20260508192219 22 135 1.6 3.2 0.00 0.00 0.00 39 1018.0
20260508191716 23 198 1.6 3.2 0.00 0.00 0.00 37 1018.1
20260508191213 22 160 0.0 1.6 0.00 0.00 0.00 38 1018.1
20260508190710 22 137 0.0 0.0 0.00 0.00 0.00 40 1018.4
20260508190206 21 153 0.0 1.6 0.00 0.00 0.00 39 1018.4
20260508185703 21 97 1.6 3.2 0.00 0.00 0.00 44 1018.0
20260508185200 22 128 1.6 3.2 0.00 0.00 0.00 38 1018.2
20260508184658 23 153 0.0 1.6 0.00 0.00 0.00 39 1018.7
20260508184155 22 192 1.6 3.2 0.00 0.00 0.00 38 1018.7
20260508183652 22 187 1.6 1.6 0.00 0.00 0.00 40 1019.0
20260508183148 21 146 0.0 1.6 0.00 0.00 0.00 40 1019.0
20260508182644 21 143 0.0 1.6 0.00 0.00 0.00 39 1019.1
20260508182141 21 152 1.6 4.8 0.00 0.00 0.00 42 1019.2
20260508181636 22 176 6.4 6.4 0.00 0.00 0.00 43 1019.2
20260508181134 22 170 0.0 1.6 0.00 0.00 0.00 41 1019.3
20260508180630 21 123 1.6 1.6 0.00 0.00 0.00 38 1019.4
20260508180127 22 164 0.0 1.6 0.00 0.00 0.00 41 1019.2
20260508175623 22 160 0.0 1.6 0.00 0.00 0.00 41 1019.3
20260508175120 21 135 0.0 1.6 0.00 0.00 0.00 42 1019.4
20260508174618 21 138 0.0 3.2 0.00 0.00 0.00 41 1019.5
20260508174115 22 178 3.2 3.2 0.00 0.00 0.00 39 1019.7
20260508173612 22 172 1.6 1.6 0.00 0.00 0.00 42 1019.8
20260508173108 21 166 0.0 3.2 0.00 0.00 0.00 41 1019.6
20260508172605 21 166 0.0 3.2 0.00 0.00 0.00 42 1019.8
20260508172101 21 170 1.6 3.2 0.00 0.00 0.00 46 1019.9
20260508171558 20 144 0.0 0.0 0.00 0.00 0.00 49 1020.0
20260508171054 20 127 0.0 0.0 0.00 0.00 0.00 46 1020.0
20260508170552 20 220 0.0 1.6 0.00 0.00 0.00 46 1020.3
20260508170049 18 108 1.6 4.8 0.00 0.00 0.00 47 1020.0
20260508165546 19 106 1.6 1.6 0.00 0.00 0.00 46 1019.9
20260508165043 21 184 0.0 1.6 0.00 0.00 0.00 47 1020.4
20260508164539 19 130 0.0 1.6 0.00 0.00 0.00 47 1020.3
20260508164036 18 61 1.6 3.2 0.00 0.00 0.00 46 1020.9
20260508163534 19 131 0.0 0.0 0.00 0.00 0.00 50 1020.7
20260508163030 19 135 0.0 3.2 0.00 0.00 0.00 49 1020.8
20260508162527 20 87 0.0 1.6 0.00 0.00 0.00 45 1021.0
20260508162025 21 196 1.6 1.6 0.00 0.00 0.00 43 1020.8
20260508161521 21 144 0.0 0.0 0.00 0.00 0.00 48 1021.1
20260508161018 20 157 0.0 0.0 0.00 0.00 0.00 49 1020.8
20260508160517 20 177 1.6 4.8 0.00 0.00 0.00 49 1021.3
20260508160014 20 160 1.6 3.2 0.00 0.00 0.00 50 1021.5
20260508155510 19 146 1.6 1.6 0.00 0.00 0.00 51 1021.3
20260508155008 18 146 0.0 3.2 0.00 0.00 0.00 52 1021.4
20260508154505 17 69 3.2 3.2 0.00 0.00 0.00 54 1021.3
20260508154001 18 61 3.2 3.2 0.00 0.00 0.00 52 1021.3
20260508153458 18 130 1.6 1.6 0.00 0.00 0.00 52 1021.3
20260508152954 18 94 1.6 3.2 0.00 0.00 0.00 52 1021.5
20260508152451 19 139 0.0 1.6 0.00 0.00 0.00 53 1021.5
20260508151947 18 62 1.6 3.2 0.00 0.00 0.00 54 1021.6
20260508151444 20 158 0.0 0.0 0.00 0.00 0.00 56 1021.8
20260508150941 19 131 0.0 1.6 0.00 0.00 0.00 56 1021.7
20260508150437 17 107 0.0 1.6 0.00 0.00 0.00 59 1021.6
20260508145933 17 78 0.0 1.6 0.00 0.00 0.00 61 1021.5
20260508145430 17 51 1.6 1.6 0.00 0.00 0.00 62 1021.7
20260508144927 16 107 1.6 3.2 0.00 0.00 0.00 65 1021.7
20260508144425 16 63 3.2 3.2 0.00 0.00 0.00 65 1021.9
20260508143922 16 102 1.6 3.2 0.00 0.00 0.00 64 1021.9
20260508143419 15 81 3.2 4.8 0.00 0.00 0.00 65 1021.8
20260508142915 16 68 3.2 4.8 0.00 0.00 0.00 65 1021.8
20260508142413 16 147 1.6 3.2 0.00 0.00 0.00 62 1021.7
20260508141909 16 113 0.0 3.2 0.00 0.00 0.00 63 1022.0
20260508141406 16 62 1.6 3.2 0.00 0.00 0.00 61 1022.0
20260508140904 15 109 3.2 3.2 0.00 0.00 0.00 63 1022.1
20260508140400 15 91 3.2 4.8 0.00 0.00 0.00 64 1022.0
20260508135856 15 106 1.6 3.2 0.00 0.00 0.00 63 1022.0
20260508135352 15 64 3.2 6.4 0.00 0.00 0.00 63 1021.6
20260508134849 15 76 3.2 9.7 0.00 0.00 0.00 65 1021.9
20260508134345 15 37 3.2 6.4 0.00 0.00 0.00 63 1021.7
20260508133842 15 89 1.6 6.4 0.00 0.00 0.00 63 1021.7
20260508133340 15 120 0.0 4.8 0.00 0.00 0.00 62 1021.8
20260508132837 15 358 3.2 6.4 0.00 0.00 0.00 65 1021.7
20260508132335 15 88 3.2 4.8 0.00 0.00 0.00 65 1021.9
20260508131831 15 67 3.2 4.8 0.00 0.00 0.00 65 1021.9
20260508131327 15 85 1.6 3.2 0.00 0.00 0.00 64 1021.7
20260508130824 15 99 1.6 3.2 0.00 0.00 0.00 64 1021.8
20260508130321 15 119 0.0 1.6 0.00 0.00 0.00 63 1021.8
20260508125817 15 81 3.2 4.8 0.00 0.00 0.00 66 1021.8
20260508125313 16 135 0.0 0.0 0.00 0.00 0.00 66 1021.9
20260508124811 15 98 0.0 1.6 0.00 0.00 0.00 66 1021.9
20260508124308 16 117 0.0 1.6 0.00 0.00 0.00 66 1021.8
20260508123806 15 103 0.0 0.0 0.00 0.00 0.00 75 1022.2
20260508123304 13 4 0.0 0.0 0.00 0.00 0.00 77 1022.1
20260508122800 12 297 0.0 3.2 0.00 0.00 0.00 79 1021.9
20260508122257 12 326 1.6 1.6 0.00 0.00 0.00 80 1021.7
20260508121754 11 300 1.6 4.8 0.00 0.00 0.00 83 1021.5
20260508121253 11 270 1.6 4.8 0.00 0.00 0.00 86 1021.7
20260508120749 11 293 1.6 3.2 0.00 0.00 0.00 89 1021.7
20260508120248 10 289 3.2 3.2 0.00 0.00 0.00 90 1021.7
20260508115745 10 290 3.2 3.2 0.00 0.00 0.00 90 1021.6
20260508115242 9 282 3.2 4.8 0.00 0.00 0.00 90 1021.4
20260508114733 9 296 3.2 3.2 0.00 0.00 0.00 91 1021.4
20260508114230 8 293 3.2 4.8 0.00 0.00 0.00 91 1021.1
20260508113726 8 290 3.2 6.4 0.00 0.00 0.00 91 1020.9
20260508113225 8 299 3.2 4.8 0.00 0.00 0.00 91 1020.9
20260508112721 8 304 3.2 4.8 0.00 0.00 0.00 91 1020.9
20260508112218 8 297 4.8 4.8 0.00 0.00 0.00 92 1020.8
20260508111715 7 294 3.2 4.8 0.00 0.00 0.00 92 1020.9
20260508111213 7 296 4.8 4.8 0.00 0.00 0.00 93 1020.6
20260508110710 7 295 3.2 4.8 0.00 0.00 0.00 93 1020.5
20260508110207 7 293 3.2 4.8 0.00 0.00 0.00 93 1020.4
20260508105706 7 298 4.8 4.8 0.00 0.00 0.00 93 1020.3
20260508105204 7 305 4.8 4.8 0.00 0.00 0.00 92 1020.2
20260508104701 7 302 4.8 6.4 0.00 0.00 0.00 92 1020.2
20260508104158 7 314 3.2 4.8 0.00 0.00 0.00 92 1020.1
20260508103655 7 299 4.8 4.8 0.00 0.00 0.00 91 1020.1
20260508103152 7 297 4.8 4.8 0.00 0.00 0.00 91 1019.9
20260508102649 7 293 4.8 4.8 0.00 0.00 0.00 92 1020.0
20260508102147 7 302 3.2 4.8 0.00 0.00 0.00 92 1019.8
20260508101644 8 298 3.2 4.8 0.00 0.00 0.00 91 1019.8
20260508101141 8 296 3.2 4.8 0.00 0.00 0.00 91 1019.7
20260508100638 8 303 3.2 3.2 0.00 0.00 0.00 91 1019.6
20260508100136 8 300 4.8 4.8 0.00 0.00 0.00 90 1019.7
20260508095633 8 302 4.8 4.8 0.00 0.00 0.00 90 1019.8
20260508095130 8 299 4.8 6.4 0.00 0.00 0.00 89 1019.8
20260508094627 8 289 4.8 4.8 0.00 0.00 0.00 90 1019.6
20260508094124 8 295 4.8 4.8 0.00 0.00 0.00 90 1019.7
20260508093621 8 285 3.2 4.8 0.00 0.00 0.00 89 1019.7
20260508093119 8 295 3.2 4.8 0.00 0.00 0.00 88 1019.6
20260508092616 9 287 3.2 4.8 0.00 0.00 0.00 89 1019.6
20260508092114 9 291 3.2 3.2 0.00 0.00 0.00 88 1019.6
20260508091611 9 281 1.6 3.2 0.00 0.00 0.00 88 1019.5
20260508091108 9 296 1.6 3.2 0.00 0.00 0.00 89 1019.6
20260508090606 9 288 3.2 3.2 0.00 0.00 0.00 88 1019.6
20260508090103 9 293 3.2 3.2 0.00 0.00 0.00 88 1019.4
20260508085559 9 298 3.2 3.2 0.00 0.00 0.00 88 1019.5
20260508085056 9 286 3.2 3.2 0.00 0.00 0.00 88 1019.4
20260508084552 10 298 3.2 3.2 0.00 0.00 0.00 88 1019.4
20260508084049 10 302 3.2 3.2 0.00 0.00 0.00 88 1019.4
20260508083547 10 287 3.2 3.2 0.00 0.00 0.00 88 1019.4
20260508083043 10 282 3.2 3.2 0.00 0.00 0.00 88 1019.4
20260508082539 10 302 1.6 3.2 0.00 0.00 0.00 88 1019.3
20260508082037 10 282 3.2 3.2 0.00 0.00 0.00 87 1019.2
20260508081534 10 286 3.2 3.2 0.00 0.00 0.00 86 1019.4
20260508081030 10 283 1.6 4.8 0.00 0.00 0.00 87 1019.5
20260508080529 10 284 3.2 3.2 0.00 0.00 0.00 87 1019.5
20260508080025 11 295 1.6 1.6 0.00 0.00 0.00 86 1019.5
20260508075522 11 286 1.6 1.6 0.00 0.00 0.00 86 1019.2
20260508075019 10 339 1.6 1.6 0.00 0.00 0.00 86 1019.5
20260508074517 10 300 1.6 1.6 0.00 0.00 0.00 88 1019.3
20260508074014 10 289 1.6 3.2 0.00 0.00 0.00 88 1019.5
20260508073511 11 304 1.6 3.2 0.00 0.00 0.00 88 1019.5
20260508073009 11 333 0.0 3.2 0.00 0.00 0.00 88 1019.4
20260508072504 10 316 3.2 3.2 0.00 0.00 0.00 89 1019.5
20260508072002 11 298 1.6 3.2 0.00 0.00 0.00 89 1019.5
20260508071459 10 281 3.2 3.2 0.00 0.00 0.00 89 1019.5
20260508070957 10 311 1.6 3.2 0.00 0.00 0.00 89 1019.6
20260508070454 10 290 3.2 3.2 0.00 0.00 0.00 88 1019.9
20260508065952 10 279 1.6 3.2 0.00 0.00 0.00 88 1019.7
20260508065450 10 280 3.2 3.2 0.00 0.00 0.00 89 1019.8
20260508064948 10 297 1.6 1.6 0.00 0.00 0.00 89 1019.7
20260508064445 10 299 3.2 3.2 0.00 0.00 0.00 89 1019.8
20260508063943 11 312 1.6 4.8 0.00 0.00 0.00 88 1019.8
20260508063440 10 298 3.2 4.8 0.00 0.00 0.00 87 1019.8
20260508062938 10 297 3.2 4.8 0.00 0.00 0.00 85 1019.8
20260508062436 11 295 3.2 3.2 0.00 0.00 0.00 85 1019.9
20260508061932 11 308 1.6 3.2 0.00 0.00 0.00 85 1020.0
20260508061430 11 291 1.6 3.2 0.00 0.00 0.00 86 1019.8
20260508060926 11 304 3.2 3.2 0.00 0.00 0.00 86 1019.9
20260508060424 11 310 3.2 3.2 0.00 0.00 0.00 84 1019.9
20260508055919 11 308 1.6 3.2 0.00 0.00 0.00 85 1020.0
20260508055416 11 278 1.6 3.2 0.00 0.00 0.00 85 1020.0
20260508054913 11 54 0.0 1.6 0.00 0.00 0.00 85 1019.8
20260508054410 11 23 0.0 1.6 0.00 0.00 0.00 85 1019.7
20260508053907 11 276 3.2 3.2 0.00 0.00 0.00 84 1019.7
20260508053404 12 284 1.6 3.2 0.00 0.00 0.00 83 1019.6
20260508052901 12 61 1.6 1.6 0.00 0.00 0.00 81 1019.8
20260508052359 12 325 1.6 3.2 0.00 0.00 0.00 84 1019.7
20260508051855 12 316 1.6 3.2 0.00 0.00 0.00 83 1019.5
20260508051350 12 65 0.0 1.6 0.00 0.00 0.00 79 1019.7
20260508050847 12 8 1.6 3.2 0.00 0.00 0.00 83 1019.6
20260508050344 12 296 4.8 4.8 0.00 0.00 0.00 85 1019.6
20260508045840 12 301 4.8 4.8 0.00 0.00 0.00 85 1019.7
20260508045337 12 303 3.2 4.8 0.00 0.00 0.00 85 1019.5
20260508044835 12 302 3.2 4.8 0.00 0.00 0.00 86 1019.7
20260508044331 12 297 3.2 4.8 0.00 0.00 0.00 86 1019.7
20260508043827 12 301 4.8 4.8 0.00 0.00 0.00 87 1019.7
20260508043324 12 279 3.2 4.8 0.00 0.00 0.00 87 1019.3
20260508042821 12 284 3.2 4.8 0.00 0.00 0.00 86 1019.2
20260508042319 12 293 3.2 4.8 0.00 0.00 0.00 86 1019.4
20260508041815 12 289 3.2 4.8 0.00 0.00 0.00 86 1019.4
20260508041312 12 309 3.2 3.2 0.00 0.00 0.00 85 1019.5
20260508040808 12 308 3.2 4.8 0.00 0.00 0.00 85 1019.4
20260508040306 12 297 3.2 4.8 0.00 0.00 0.00 86 1019.7
20260508035803 12 289 3.2 4.8 0.00 0.56 0.56 85 1019.4
20260508035300 12 299 3.2 4.8 0.00 0.56 0.56 86 1019.4
20260508034756 12 297 3.2 4.8 0.00 0.56 0.56 86 1019.4
20260508034254 12 294 3.2 4.8 0.00 0.56 0.56 87 1019.5
20260508033751 12 302 3.2 4.8 0.00 0.56 0.56 86 1019.4
20260508033249 12 300 3.2 4.8 0.00 0.56 0.56 85 1019.4
20260508032746 12 289 3.2 4.8 0.00 0.56 0.56 86 1019.4
20260508032243 12 285 3.2 4.8 0.00 0.56 0.56 88 1019.3
20260508031740 12 295 3.2 4.8 0.00 0.56 0.56 88 1019.4
20260508031236 12 291 3.2 3.2 0.00 0.56 0.56 89 1019.2
20260508030733 13 300 3.2 4.8 0.00 0.56 0.56 90 1019.1
20260508030230 12 306 3.2 4.8 0.00 0.56 0.56 90 1019.0
20260508025727 12 302 3.2 4.8 0.00 0.56 0.56 90 1019.0
20260508025224 12 297 3.2 4.8 0.00 0.56 0.56 90 1019.1
20260508024720 12 308 3.2 4.8 0.00 0.56 0.56 90 1019.0
20260508024217 12 288 3.2 4.8 0.00 0.56 0.56 90 1018.9
20260508023713 12 302 4.8 4.8 0.00 0.56 0.56 90 1019.0
20260508023211 12 279 3.2 4.8 0.00 0.56 0.56 91 1018.7
20260508022706 12 287 4.8 4.8 0.00 0.56 0.56 91 1018.9
20260508022204 12 287 3.2 4.8 0.00 0.56 0.56 91 1019.2
20260508021700 12 287 4.8 4.8 0.00 0.56 0.56 91 1019.0
20260508021155 12 300 4.8 6.4 0.00 0.56 0.56 91 1018.9
20260508020654 12 297 3.2 4.8 0.00 0.56 0.56 91 1019.1
20260508020151 12 293 4.8 4.8 0.00 0.56 0.56 91 1018.9
20260508015648 12 285 4.8 4.8 0.00 0.56 0.56 91 1018.9
20260508015145 12 295 3.2 4.8 0.00 0.56 0.56 91 1018.7
20260508014641 13 286 4.8 4.8 0.00 0.56 0.56 91 1018.8
20260508014137 12 283 3.2 4.8 0.00 0.56 0.56 91 1018.8
20260508013634 13 287 3.2 3.2 0.00 0.56 0.56 90 1018.5
20260508013131 13 296 3.2 4.8 0.00 0.56 0.56 90 1018.7
20260508012628 13 289 3.2 3.2 0.00 0.56 0.56 89 1018.5
20260508012125 13 302 3.2 3.2 0.00 0.56 0.56 89 1018.4
20260508011624 13 297 3.2 3.2 0.00 0.56 0.56 88 1018.3
20260508011120 13 302 3.2 3.2 0.00 0.56 0.56 88 1018.2
20260508010617 13 294 3.2 3.2 0.00 0.56 0.56 87 1017.9
20260508010115 13 282 3.2 3.2 0.00 0.56 0.56 86 1018.0